Theta_e
293 290 290 292 294 297 296 294 292 297 301 300 299 299 300 304 305 303 304 303 304 306 308 309 311 312 340 336 330 330 333 331 340 347 348 348 347 351 352 356 355 355 352 351
292 287 293 294 295 297 296 294 293 297 300 300 299 298 301 302 303 304 302 304 305 305 307 310 310 309 349 349 345 339 344 346 349 351 350 348 347 348 349 351 351 352 352 351
287 291 295 293 291 292 295 294 294 294 299 299 297 295 298 302 304 304 304 304 307 306 307 308 310 311 351 351 350 349 352 350 349 352 351 346 348 347 345 344 350 349 350 350
290 294 294 293 290 291 288 296 297 296 294 289 298 288 296 300 301 302 304 303 304 306 308 308 310 315 345 340 341 339 350 349 348 352 349 345 344 341 342 345 347 346 348 347
288 292 291 291 292 293 289 295 294 295 293 292 294 292 295 301 298 301 302 303 303 306 307 309 310 331 340 342 340 337 342 345 346 349 350 347 345 342 345 345 345 344 343 343
292 297 295 294 296 297 297 293 292 294 292 285 291 292 293 297 299 300 303 305 306 306 307 309 311 335 340 340 336 332 338 345 345 347 347 346 345 340 340 342 340 340 339 339
291 292 296 297 292 296 295 287 282 282 283 283 293 292 292 298 303 304 304 306 306 307 306 307 321 328 341 338 338 342 345 343 343 344 345 344 341 339 339 341 340 337 336 337
284 284 293 296 293 291 291 289 281 279 280 284 293 289 293 302 304 306 307 307 306 306 305 309 317 322 336 343 345 346 343 341 339 343 344 341 340 340 339 338 337 335 335 333
286 286 296 297 298 297 291 287 292 287 290 285 288 292 299 302 306 310 308 307 306 305 306 307 314 318 337 340 340 341 341 340 341 339 339 339 338 335 333 331 331 330 330 330
291 284 294 297 299 299 294 294 284 286 282 280 286 288 289 296 304 313 311 306 306 306 306 317 321 336 338 338 338 339 337 334 334 334 333 332 330 328 326 325 322 321 321 321
292 289 290 294 292 291 291 290 290 288 288 282 281 286 297 296 309 312 314 313 309 321 327 329 332 334 335 336 334 334 333 330 328 326 324 321 320 320 318 318 317 315 314 313
291 285 282 287 296 297 294 293 291 285 285 288 288 288 306 309 312 315 316 319 322 324 326 327 328 329 329 331 329 326 324 322 321 319 319 317 316 315 313 312 311 311 310 310
291 286 280 286 292 296 292 294 294 290 292 288 284 290 308 311 311 315 316 319 321 322 323 324 326 327 326 323 321 320 319 318 317 316 315 314 312 310 309 309 308 308 308 308
294 287 284 280 285 290 289 293 293 290 288 290 291 296 301 307 309 314 316 318 319 321 322 321 320 320 319 318 317 317 316 315 315 315 312 310 310 309 309 309 309 310 310 310
290 284 286 288 290 291 291 292 293 291 292 289 293 295 301 305 309 313 315 315 315 315 315 315 315 315 315 314 314 313 313 313 312 311 309 307 308 309 309 309 309 309 308 308
287 284 287 285 290 292 291 295 295 295 296 296 298 298 305 308 312 311 311 311 310 310 310 310 310 309 307 308 308 309 309 309 308 307 306 308 308 308 307 306 306 305 305 304
285 285 285 285 292 292 289 293 294 297 299 298 291 300 305 304 306 308 307 308 306 307 307 307 307 307 306 305 305 304 305 306 305 306 307 307 307 306 305 305 303 302 301 301
287 285 288 287 290 281 294 299 300 297 300 301 301 303 304 304 305 306 307 305 304 305 304 304 303 303 304 305 305 305 306 306 305 305 306 305 305 304 303 301 300 302 302 300
293 286 286 283 281 292 294 299 298 297 298 303 301 300 301 301 301 301 304 304 303 303 303 303 305 304 304 304 305 305 304 304 304 304 303 304 303 301 300 299 297 297 299 301
293 292 288 288 283 282 292 302 304 302 290 301 301 299 299 300 291 294 301 301 301 302 303 303 304 304 304 303 304 303 302 302 302 302 303 302 301 300 300 300 296 299 300 297
288 288 286 287 288 292 297 304 305 290 291 301 301 300 299 295 296 299 301 300 301 302 302 303 302 302 301 302 303 301 301 300 302 303 301 301 299 300 299 298 296 296 297 294
286 285 286 289 286 286 305 305 298 298 302 298 298 298 296 297 298 298 299 300 300 300 300 301 300 300 301 301 301 299 298 300 302 302 300 298 297 297 295 292 291 291 291 289
287 289 287 290 290 302 303 300 303 300 297 296 296 296 297 296 296 297 297 298 298 298 298 299 298 298 299 300 299 297 298 301 301 300 297 295 294 294 292 289 287 287 288 288
290 292 290 291 296 300 298 299 298 298 295 295 296 295 295 294 296 295 297 297 297 297 297 298 298 297 297 299 299 297 300 300 298 296 298 295 292 290 289 290 286 284 286 286
288 288 288 293 296 298 297 296 296 295 295 294 294 295 295 295 295 296 296 297 297 297 297 297 296 296 296 297 297 297 299 299 295 294 294 296 292 288 287 288 287 286 286 286
289 288 287 288 295 295 294 296 296 294 294 294 293 294 296 297 296 297 297 297 297 296 296 295 295 294 297 296 296 296 297 297 293 292 293 293 293 291 291 289 288 289 289 288
Wind_Speed
10 13 14 20 20 19 20 20 17 16 16 23 21 17 11 16 15 11 14 10 10 10 7 7 8 6 16 20 17 17 14 10 3 12 6 4 3 4 4 4 7 7 6 6
11 17 16 15 17 22 22 22 20 13 24 19 21 19 15 11 17 18 11 17 14 9 10 8 10 5 15 23 19 19 20 22 23 10 4 3 3 3 4 5 5 6 6 5
11 20 20 19 22 24 21 20 19 16 14 21 9 20 12 19 14 12 11 10 17 16 16 13 10 9 15 17 19 16 16 13 9 13 7 3 2 3 3 2 4 3 6 5
16 14 17 22 22 20 17 17 20 20 17 13 17 11 12 19 20 11 15 10 10 12 15 12 8 8 16 12 13 7 8 12 8 9 8 6 4 4 2 2 4 4 6 5
6 8 12 17 19 22 17 17 18 21 18 11 19 12 16 16 16 20 11 9 10 10 13 14 9 12 16 15 12 10 7 5 6 8 9 7 5 4 3 4 6 5 5 7
13 11 13 15 15 19 15 20 18 16 16 13 18 10 18 15 27 11 8 13 13 11 10 10 9 15 18 13 13 7 8 9 6 7 8 10 8 5 5 5 5 4 4 4
4 17 18 11 9 13 10 8 9 7 13 9 15 10 11 10 14 19 18 16 15 13 10 9 14 14 19 18 18 14 13 11 8 6 5 4 3 6 7 6 6 6 4 4
4 4 8 19 20 7 9 8 4 8 6 15 11 7 11 10 13 14 14 15 15 12 10 10 13 12 19 21 19 17 14 11 7 7 4 6 5 7 6 6 5 5 6 5
5 4 11 10 8 16 6 10 10 6 7 7 6 9 4 12 7 3 17 19 20 12 11 12 13 12 19 19 18 18 16 12 10 10 10 11 8 9 11 11 9 6 5 4
5 6 7 9 1 8 10 5 5 4 9 5 7 19 7 7 8 11 8 21 20 13 10 13 14 20 17 18 17 17 14 15 16 15 13 13 12 12 12 12 11 10 8 8
7 4 1 5 7 10 8 14 11 3 4 7 8 9 14 3 12 14 12 15 15 18 20 21 21 18 19 19 18 18 17 17 16 16 14 15 13 13 12 12 10 8 9 8
3 3 6 9 6 1 2 7 10 4 11 1 2 2 13 4 16 22 16 22 23 24 22 19 20 20 20 20 17 18 18 18 16 14 16 14 13 12 11 9 8 8 7 7
1 1 6 6 3 3 3 6 9 7 5 8 3 1 12 11 15 17 25 19 22 24 22 20 19 19 20 19 19 18 17 17 15 14 16 14 10 8 8 8 6 6 6 5
7 3 6 5 8 4 8 9 12 12 5 5 2 3 6 7 16 19 20 21 21 21 22 22 19 20 19 18 19 18 17 15 14 15 12 10 8 7 7 6 7 7 7 10
2 5 11 17 18 14 10 9 10 13 14 5 6 4 7 3 12 21 22 23 24 23 23 22 20 18 18 18 18 17 16 15 14 13 12 9 7 7 8 9 10 9 10 10
4 4 5 14 17 14 7 14 12 1 12 9 6 1 11 3 13 21 24 25 25 23 22 21 21 21 18 18 16 17 16 14 11 10 9 8 10 11 9 9 8 9 9 8
4 3 2 5 13 9 4 13 11 9 8 6 4 5 12 13 16 20 25 25 25 23 21 20 20 17 15 15 16 16 14 12 11 11 11 11 10 11 10 9 9 7 7 7
4 2 2 5 8 2 7 14 12 17 13 2 6 13 16 20 19 19 18 26 24 22 22 20 17 16 15 15 16 15 13 12 11 11 12 11 11 11 9 9 8 8 6 5
7 1 4 1 2 8 15 8 11 21 8 10 14 21 25 26 29 19 17 22 22 23 18 17 16 15 16 16 14 15 14 12 11 11 12 11 11 9 8 9 7 6 5 8
8 5 3 5 4 6 4 17 22 17 7 13 16 21 27 27 20 9 13 21 22 20 18 18 18 16 16 13 13 14 12 12 11 11 11 10 9 9 10 7 6 5 7 8
4 3 2 3 4 5 7 23 16 5 9 14 16 10 19 21 14 17 17 20 20 19 20 20 18 15 12 12 13 14 12 11 10 11 11 8 7 11 10 11 7 8 9 7
4 6 3 2 4 5 3 9 4 14 19 19 17 22 26 24 20 21 19 19 18 19 18 17 15 13 11 10 12 12 11 9 10 10 9 11 11 10 8 9 8 10 8 8
4 7 4 6 3 6 14 16 18 20 25 20 21 17 27 23 20 20 18 17 16 17 16 14 14 14 12 11 10 11 7 10 9 9 11 11 10 9 9 10 10 8 8 8
10 11 5 6 11 18 20 21 21 22 21 19 20 18 19 24 18 19 16 16 15 14 14 13 14 14 12 11 10 9 8 8 9 8 10 8 10 10 10 8 8 7 7 7
4 11 10 6 11 18 16 20 23 23 23 23 21 21 20 18 16 14 15 15 15 14 13 12 12 12 13 11 10 7 9 7 8 7 6 9 7 8 8 9 7 6 5 4
8 7 5 5 9 14 11 15 23 23 22 23 25 19 15 10 14 15 15 14 14 13 11 10 9 10 13 11 11 9 7 7 6 5 5 6 7 7 6 5 4 6 3 4
Wind_Direction
237 247 226 223 234 247 241 250 235 240 212 224 241 223 205 205 234 238 211 203 198 211 246 218 229 233 137 161 163 156 154 186 178 222 202 125 163 134 99 91 105 111 130 133
285 253 239 242 258 251 248 245 253 237 242 213 231 233 214 190 215 228 210 199 195 203 219 243 231 179 152 161 168 165 171 192 197 185 114 141 163 135 133 135 127 142 149 140
206 258 233 233 239 250 242 236 246 248 254 236 215 227 230 213 207 200 211 183 196 190 205 222 217 179 143 153 160 162 163 152 153 152 131 127 114 56 95 133 124 157 136 152
213 224 245 231 229 234 236 252 246 255 249 249 217 228 223 218 204 206 210 194 188 186 200 211 194 156 137 132 110 82 121 139 148 144 138 153 147 136 158 140 134 148 122 116
253 290 308 268 244 218 242 239 247 244 251 252 262 234 221 201 195 207 200 192 196 187 189 208 194 142 143 145 136 141 119 101 164 143 149 141 137 178 152 133 147 140 108 87
287 264 243 268 303 273 241 229 245 249 238 246 247 242 223 186 194 180 204 205 194 189 191 189 182 139 147 140 129 159 143 141 160 166 146 156 170 189 147 139 130 118 96 88
286 243 241 250 283 268 249 255 215 214 229 222 233 242 249 208 183 187 204 198 185 182 180 168 154 138 135 148 140 141 149 148 136 143 136 139 140 193 143 132 127 112 96 75
240 359 193 189 213 209 257 227 183 171 185 219 214 205 230 202 194 197 196 186 170 167 164 141 147 138 127 134 133 129 123 112 110 102 104 91 99 69 65 86 90 88 94 90
316 355 312 291 235 191 266 246 240 163 187 217 169 245 223 264 165 340 219 175 172 158 155 140 147 149 122 122 123 125 121 121 93 74 71 76 70 66 71 71 73 74 75 81
316 298 215 280 73 160 198 273 239 235 182 184 195 215 226 210 87 33 11 167 160 148 125 100 123 107 110 107 106 98 97 97 94 86 77 76 76 73 74 72 63 55 50 49
339 298 284 311 200 180 163 234 240 178 148 203 182 212 208 250 120 86 45 74 104 93 93 100 101 100 102 100 102 99 96 97 89 89 86 82 74 67 64 62 56 53 50 44
90 272 270 243 293 243 124 276 194 212 220 236 84 256 336 239 120 103 80 90 93 98 99 101 104 105 102 99 96 98 95 93 90 90 85 77 72 65 63 61 55 55 57 48
317 327 306 307 116 190 209 201 210 193 339 204 143 318 347 89 107 102 110 100 102 103 102 99 96 96 100 103 104 98 95 92 89 89 85 79 75 74 75 75 69 71 69 61
147 230 249 261 289 303 297 232 181 180 115 226 283 56 11 84 118 110 103 104 103 102 103 100 101 100 101 104 101 101 97 96 96 85 85 84 82 84 82 75 59 51 45 38
90 247 238 263 261 247 246 274 227 214 184 152 224 213 153 149 132 120 111 106 103 102 101 105 107 105 104 101 99 98 97 92 88 89 85 85 82 75 64 54 57 52 44 38
187 269 288 276 242 248 240 248 182 303 162 134 226 206 135 177 138 112 108 107 103 103 103 101 97 93 92 96 97 95 93 91 89 89 90 81 73 71 66 58 56 52 44 36
208 257 283 276 163 180 247 179 175 120 103 93 27 186 143 122 103 111 110 104 106 105 100 95 92 89 89 89 90 85 81 80 79 84 81 80 75 73 66 57 51 55 44 34
197 213 243 275 137 104 335 136 121 114 102 174 136 144 116 101 94 86 98 104 102 99 95 92 90 88 87 85 81 82 77 74 75 76 78 73 70 69 64 57 39 38 47 44
172 352 284 278 13 142 39 86 110 118 98 138 110 106 111 101 86 69 90 95 97 95 92 92 86 82 80 76 77 81 78 75 70 76 76 74 72 69 64 61 42 20 40 39
150 227 285 344 42 77 223 114 120 111 76 114 113 127 123 111 92 94 92 93 91 86 86 85 76 74 72 70 76 79 78 76 71 64 81 79 73 73 69 67 43 41 52 41
334 350 49 338 80 92 248 163 187 85 144 129 107 85 101 95 102 119 96 89 88 88 86 81 76 75 71 68 76 77 78 75 77 73 70 73 73 66 49 56 39 27 55 42
340 326 31 319 69 151 204 218 303 125 118 111 106 112 101 105 108 99 100 95 92 92 86 82 85 78 68 64 82 82 80 80 81 78 78 69 63 59 52 49 41 36 41 34
17 4 311 14 358 40 55 87 104 109 115 117 109 109 110 104 102 98 101 100 92 90 89 88 87 85 78 74 75 84 77 95 97 94 86 78 68 63 65 57 45 39 32 36
343 9 12 349 11 87 80 80 87 95 100 106 103 100 97 106 104 106 107 105 106 100 99 100 103 100 93 89 85 80 88 91 79 70 90 84 80 65 48 64 55 41 31 28
330 315 317 2 24 74 74 97 103 102 103 97 89 97 97 101 103 113 112 108 102 99 100 101 104 104 101 92 80 80 94 81 79 75 71 98 89 86 74 61 51 53 38 34
339 340 358 9 359 79 83 103 113 109 107 107 109 99 74 74 101 101 98 99 100 101 100 97 94 97 114 112 108 93 80 64 67 62 71 93 90 74 71 84 73 53 52 7